Вернуться в каталог

ANIK C3 R/B

PAM-D

АктивенHEO
NORAD 13666·ROCKET BODY·🇺🇸 United States

Запущен Nov 11, 1982 с Cape Canaveral Space Force Station

Loading…

Ближайшие Пролёты (ближайшие 24 часа)

TLE

СвежийSource: Space-Track

Эпоха: Sep 14, 2026, 14:59 UTC

1 13666U 82110E   26257.62473204  .00000060  00000-0  26495-3 0  9999
2 13666  23.0932 244.9073 7052352 190.4528 138.3022  2.52608143339572

Отслеживайте ANIK C3 R/B в реальном времени с AllMySat

Download on the App Store